Mount Sterling, KY

6:04 AM EDT on May 21, 2018 (GMT -0400)
Mount Sterling-Montgomery County

Weather History for KIOB - September, 2012

Change the Weather History Date:

Friday, September 14, 2012

  Actual Average Record
Temperature  
Mean Temperature 68 °F -  
Max Temperature 82 °F 80 °F 87 °F (2016)
Min Temperature 55 °F 58 °F 42 °F (2014)
Cooling Degree Days 4    
Growing Degree Days 18 (Base 50)    
Moisture  
Dew Point 59 °F    
Average Humidity 78    
Maximum Humidity 100    
Minimum Humidity 42    
Precipitation  
Precipitation 0.00 in - - ()
Sea Level Pressure  
Sea Level Pressure 30.25 in    
Wind  
Wind Speed 4 mph ()    
Max Wind Speed 10 mph    
Max Gust Speed 18 mph    
Visibility 9.1 miles    
Events      
Averages and records for this station are not official NWS values.
T = Trace of Precipitation, MM = Missing Value Source: Averaged Metar Reports

Daily Weather History Graph

Daily Weather History Graph

Search for Another Location

Airport or City:

Astronomy

Sep. 14, 2012 Rise Set
Actual Time 7:17 AM EDT 7:44 PM EDT
Civil Twilight 6:50 AM EDT 8:11 PM EDT
Nautical Twilight 6:19 AM EDT 8:42 PM EDT
Astronomical Twilight 5:47 AM EDT 9:13 PM EDT
Moon 5:41 AM EDT (9/14) 6:40 PM EDT (9/14)
Length of Visible Light 13h 20m
Length of Day
12h 27m
Waning Crescent, 3% of the Moon is Illuminated
Sep 14
Waning Crescent
Sep 15
New
Sep 22
First Quarter
Sep 29
Full
Oct 8
Last Quarter

Hourly Weather History & Observations

Time (EDT) Temp. Heat Index Dew Point Humidity Pressure Visibility Wind Dir Wind Speed Gust Speed Precip Events Conditions
12:15 AM 62.6 °F - 60.8 °F 94% 30.28 in 10.0 mi Calm Calm - N/A   Clear
12:35 AM 62.6 °F - 60.8 °F 94% 30.27 in 10.0 mi Calm Calm - N/A   Clear
12:55 AM 60.8 °F - 60.8 °F 100% 30.27 in 10.0 mi Calm Calm - N/A   Clear
1:15 AM 60.8 °F - 60.8 °F 100% 30.27 in 10.0 mi SW 3.5 mph - N/A   Clear
1:35 AM 60.8 °F - 59.0 °F 94% 30.27 in 10.0 mi SW 4.6 mph - N/A   Clear
1:55 AM 59.0 °F - 59.0 °F 100% 30.27 in 10.0 mi SW 4.6 mph - N/A   Clear
2:15 AM 59.0 °F - 59.0 °F 100% 30.27 in 10.0 mi SW 5.8 mph - N/A   Clear
2:35 AM 60.8 °F - 59.0 °F 94% 30.26 in 10.0 mi Calm Calm - N/A   Clear
2:55 AM 60.8 °F - 59.0 °F 94% 30.25 in 10.0 mi Calm Calm - N/A   Clear
3:15 AM 59.0 °F - 59.0 °F 100% 30.25 in 10.0 mi SW 3.5 mph - N/A   Clear
3:35 AM 59.0 °F - 57.2 °F 94% 30.24 in 7.0 mi SW 3.5 mph - N/A   Clear
3:55 AM 57.2 °F - 57.2 °F 100% 30.24 in 7.0 mi WSW 3.5 mph - N/A   Clear
4:15 AM 59.0 °F - 59.0 °F 100% 30.24 in 7.0 mi WSW 4.6 mph - N/A   Clear
4:35 AM 59.0 °F - 57.2 °F 94% 30.24 in 7.0 mi SW 3.5 mph - N/A   Clear
4:55 AM 57.2 °F - 55.4 °F 94% 30.24 in 7.0 mi SW 4.6 mph - N/A   Clear
5:15 AM 57.2 °F - 57.2 °F 100% 30.25 in 7.0 mi Calm Calm - N/A   Clear
5:35 AM 55.4 °F - 55.4 °F 100% 30.25 in 5.0 mi SW 4.6 mph - N/A   Clear
5:55 AM 55.4 °F - 55.4 °F 100% 30.25 in 5.0 mi SW 4.6 mph - N/A   Clear
6:15 AM 57.2 °F - 57.2 °F 100% 30.25 in 1.2 mi WSW 4.6 mph - N/A   Mostly Cloudy
6:35 AM 55.4 °F - 55.4 °F 100% 30.25 in 1.0 mi WSW 4.6 mph - N/A   Overcast
6:55 AM 59.0 °F - 59.0 °F 100% 30.26 in 2.0 mi WSW 4.6 mph - N/A   Overcast
7:15 AM 57.2 °F - 57.2 °F 100% 30.26 in 4.0 mi WSW 4.6 mph - N/A   Scattered Clouds
7:35 AM 59.0 °F - 59.0 °F 100% 30.27 in 7.0 mi SW 4.6 mph - N/A   Clear
7:55 AM 57.2 °F - 57.2 °F 100% 30.27 in 7.0 mi SW 4.6 mph - N/A   Clear
8:15 AM 59.0 °F - 59.0 °F 100% 30.27 in 10.0 mi SW 3.5 mph - N/A   Clear
8:35 AM 62.6 °F - 60.8 °F 94% 30.27 in 10.0 mi SW 4.6 mph - N/A   Clear
9:15 AM 64.4 °F - 60.8 °F 88% 30.26 in 10.0 mi WSW 5.8 mph - N/A   Clear
9:35 AM 68.0 °F - 62.6 °F 83% 30.27 in 10.0 mi WSW 4.6 mph - N/A   Clear
9:55 AM 69.8 °F - 62.6 °F 78% 30.27 in 10.0 mi West 4.6 mph - N/A   Clear
10:15 AM 71.6 °F - 62.6 °F 73% 30.27 in 10.0 mi West 4.6 mph - N/A   Clear
10:35 AM 71.6 °F - 60.8 °F 69% 30.27 in 10.0 mi West 5.8 mph - N/A   Clear
10:55 AM 73.4 °F - 60.8 °F 65% 30.27 in 10.0 mi WNW 5.8 mph - N/A   Clear
11:15 AM 75.2 °F - 62.6 °F 65% 30.27 in 10.0 mi West 4.6 mph - N/A   Clear
11:35 AM 77.0 °F - 62.6 °F 61% 30.27 in 10.0 mi West 5.8 mph - N/A   Clear
11:55 AM 78.8 °F - 62.6 °F 57% 30.27 in 10.0 mi NNW 6.9 mph - N/A   Clear
12:15 PM 78.8 °F - 62.6 °F 57% 30.27 in 10.0 mi WNW 4.6 mph - N/A   Scattered Clouds
12:35 PM 77.0 °F - 60.8 °F 57% 30.26 in 10.0 mi NW 4.6 mph - N/A   Mostly Cloudy
12:55 PM 77.0 °F - 60.8 °F 57% 30.26 in 10.0 mi NW 5.8 mph - N/A   Mostly Cloudy
1:15 PM 77.0 °F - 60.8 °F 57% 30.26 in 10.0 mi WNW 5.8 mph - N/A   Overcast
1:35 PM 78.8 °F - 60.8 °F 54% 30.25 in 10.0 mi Calm Calm - N/A   Mostly Cloudy
1:55 PM 80.6 °F 81.1 °F 59.0 °F 48% 30.25 in 10.0 mi WNW 4.6 mph - N/A   Scattered Clouds
2:15 PM 80.6 °F 81.1 °F 59.0 °F 48% 30.24 in 10.0 mi NW 6.9 mph - N/A   Scattered Clouds
2:35 PM 80.6 °F 81.1 °F 59.0 °F 48% 30.23 in 10.0 mi West 5.8 mph - N/A   Scattered Clouds
2:55 PM 80.6 °F 81.1 °F 59.0 °F 48% 30.23 in 10.0 mi WNW 6.9 mph - N/A   Scattered Clouds
3:15 PM 80.6 °F 81.1 °F 59.0 °F 48% 30.22 in 10.0 mi West 5.8 mph - N/A   Scattered Clouds
3:35 PM 80.6 °F 80.5 °F 55.4 °F 42% 30.22 in 10.0 mi West 4.6 mph - N/A   Clear
3:55 PM 82.4 °F 82.5 °F 59.0 °F 45% 30.21 in 10.0 mi WNW 5.8 mph - N/A   Clear
4:15 PM 80.6 °F 81.1 °F 59.0 °F 48% 30.21 in 10.0 mi NW 3.5 mph - N/A   Scattered Clouds
4:35 PM 78.8 °F - 59.0 °F 51% 30.21 in 10.0 mi WNW 5.8 mph - N/A   Scattered Clouds
4:55 PM 80.6 °F 81.1 °F 59.0 °F 48% 30.21 in 10.0 mi Calm Calm - N/A   Scattered Clouds
5:15 PM 80.6 °F 80.8 °F 57.2 °F 45% 30.21 in 10.0 mi North 5.8 mph - N/A   Mostly Cloudy
5:35 PM 78.8 °F - 60.8 °F 54% 30.21 in 10.0 mi NNE 5.8 mph - N/A   Overcast
5:55 PM 77.0 °F - 60.8 °F 57% 30.22 in 10.0 mi North 4.6 mph - N/A   Overcast
6:15 PM 75.2 °F - 62.6 °F 65% 30.22 in 10.0 mi North 8.1 mph - N/A   Overcast
6:35 PM 73.4 °F - 64.4 °F 73% 30.23 in 10.0 mi NNE 8.1 mph 18.4 mph N/A   Overcast
6:55 PM 71.6 °F - 64.4 °F 78% 30.23 in 10.0 mi NNE 9.2 mph - N/A   Overcast
7:15 PM 71.6 °F - 62.6 °F 73% 30.24 in 10.0 mi North 6.9 mph - N/A   Overcast
7:35 PM 69.8 °F - 62.6 °F 78% 30.24 in 10.0 mi North 6.9 mph - N/A   Overcast
7:55 PM 68.0 °F - 62.6 °F 83% 30.25 in 10.0 mi NNE 10.4 mph 18.4 mph N/A   Overcast
8:15 PM 68.0 °F - 60.8 °F 78% 30.25 in 10.0 mi NNE 10.4 mph 17.3 mph N/A   Overcast
8:35 PM 66.2 °F - 60.8 °F 83% 30.26 in 10.0 mi NE 5.8 mph - N/A   Overcast
8:55 PM 66.2 °F - 60.8 °F 83% 30.27 in 10.0 mi NE 6.9 mph - N/A   Overcast
9:15 PM 64.4 °F - 60.8 °F 88% 30.27 in 10.0 mi NE 6.9 mph - N/A   Overcast
9:35 PM 64.4 °F - 59.0 °F 83% 30.28 in 10.0 mi NE 8.1 mph - N/A   Overcast
9:55 PM 64.4 °F - 59.0 °F 83% 30.28 in 10.0 mi NE 8.1 mph - N/A   Overcast
10:15 PM 62.6 °F - 59.0 °F 88% 30.28 in 10.0 mi NE 5.8 mph - N/A   Overcast
10:35 PM 62.6 °F - 57.2 °F 82% 30.29 in 10.0 mi NE 4.6 mph - N/A   Overcast
10:55 PM 62.6 °F - 57.2 °F 82% 30.29 in 10.0 mi NE 6.9 mph - N/A   Overcast
11:15 PM 62.6 °F - 55.4 °F 77% 30.29 in 10.0 mi NE 6.9 mph - N/A   Overcast
11:35 PM 62.6 °F - 53.6 °F 72% 30.30 in 10.0 mi NNE 6.9 mph - N/A   Overcast
11:55 PM 60.8 °F - 50.0 °F 68% 30.30 in 10.0 mi NE 10.4 mph - N/A   Mostly Cloudy